TimeCST,TemperatureF,Dew PointF,Humidity,Sea Level PressureIn,VisibilityMPH,Wind Direction,Wind SpeedMPH,Gust SpeedMPH,PrecipitationIn,Events,Conditions,WindDirDegrees,DateUTC
12:54 AM,42.1,34.0,73,29.60,10.0,SSW,10.4,-,N/A,,Clear,200,2014-01-13 06:54:00
1:54 AM,41.0,34.0,76,29.61,10.0,SSW,9.2,-,N/A,,Clear,200,2014-01-13 07:54:00
2:54 AM,42.1,34.0,73,29.61,10.0,SSW,12.7,-,N/A,,Clear,210,2014-01-13 08:54:00
3:54 AM,48.9,33.1,54,29.60,10.0,SSW,9.2,-,N/A,,Clear,200,2014-01-13 09:54:00
4:54 AM,53.1,33.1,47,29.58,10.0,SSW,5.8,-,N/A,,Clear,200,2014-01-13 10:54:00
5:54 AM,42.1,33.1,70,29.59,10.0,WSW,4.6,-,N/A,,Clear,250,2014-01-13 11:54:00
6:54 AM,41.0,33.1,73,29.59,10.0,WSW,5.8,-,N/A,,Clear,250,2014-01-13 12:54:00
7:54 AM,39.0,30.9,73,29.63,10.0,West,6.9,-,N/A,,Clear,280,2014-01-13 13:54:00
8:54 AM,39.9,30.9,70,29.66,10.0,West,5.8,-,N/A,,Scattered Clouds,280,2014-01-13 14:54:00
9:54 AM,46.9,32.0,56,29.66,10.0,West,4.6,-,N/A,,Clear,260,2014-01-13 15:54:00
10:54 AM,45.0,34.0,65,29.68,10.0,West,10.4,-,N/A,,Clear,270,2014-01-13 16:54:00
11:54 AM,46.0,34.0,63,29.67,10.0,West,12.7,-,N/A,,Clear,280,2014-01-13 17:54:00
12:54 PM,46.0,34.0,63,29.67,10.0,West,15.0,-,N/A,,Clear,270,2014-01-13 18:54:00
1:54 PM,48.9,33.1,54,29.68,10.0,WNW,16.1,25.3,N/A,,Clear,300,2014-01-13 19:54:00
2:31 PM,45.0,33.1,63,29.70,10.0,WNW,13.8,25.3,N/A,,Mostly Cloudy,290,2014-01-13 20:31:00
2:54 PM,45.0,32.0,60,29.72,10.0,WNW,13.8,26.5,N/A,,Overcast,290,2014-01-13 20:54:00
3:40 PM,39.9,30.0,68,29.74,10.0,WNW,12.7,23.0,N/A,,Overcast,290,2014-01-13 21:40:00
3:54 PM,39.9,30.0,68,29.76,10.0,WNW,11.5,-,N/A,,Overcast,290,2014-01-13 21:54:00
4:06 PM,39.0,30.0,70,29.75,10.0,West,12.7,-,N/A,,Scattered Clouds,280,2014-01-13 22:06:00
4:54 PM,37.9,28.9,70,29.78,10.0,West,10.4,-,N/A,,Clear,280,2014-01-13 22:54:00
5:54 PM,37.9,27.0,65,29.81,10.0,WNW,9.2,-,N/A,,Clear,290,2014-01-13 23:54:00
6:54 PM,36.0,24.1,62,29.83,10.0,WNW,5.8,-,N/A,,Clear,290,2014-01-14 00:54:00
7:54 PM,33.1,24.1,70,29.84,10.0,West,4.6,-,N/A,,Clear,280,2014-01-14 01:54:00
8:54 PM,37.9,25.0,60,29.83,10.0,WSW,4.6,-,N/A,,Clear,250,2014-01-14 02:54:00
9:54 PM,39.0,25.0,57,29.84,10.0,SW,4.6,-,N/A,,Clear,230,2014-01-14 03:54:00
10:54 PM,42.1,23.0,47,29.83,10.0,SW,5.8,-,N/A,,Clear,220,2014-01-14 04:54:00
11:54 PM,39.9,23.0,51,29.82,7.0,South,5.8,-,N/A,,Clear,180,2014-01-14 05:54:00